DAL796 KPHX-KATL

Flight info

Callsign DAL796
Flight time N/A
Altitude 35000
Route ECLPS1 PHASE ELP J50 LINZY/N0440F370 J50 ABI J4 FUZ Q184 MERDN DUUCK ORRKK HOBTT3
Aircraft B752/M-SDE2E3FGHIJ3J4J7RWXY/LB1

Departure

Time 2026-04-30 19:13
Airport Phoenix Sky Harbor International Airport (KPHX)

Arrival

Time N/A
Airport Hartsfield Jackson Atlanta International Airport (KATL)
Time Latitude Longitude Altitude Speed Heading
2026-04-30 18:48 33.43378 -112.01187 1134 ft 0 kts 27°
2026-04-30 19:05 33.43362 -112.01197 1133 ft 2 kts 26°
2026-04-30 19:05 33.43335 -112.01213 1133 ft 2 kts 27°
2026-04-30 19:06 33.43313 -112.01227 1133 ft 2 kts 10°
2026-04-30 19:06 33.43299 -112.01224 1133 ft 2 kts 330°
2026-04-30 19:06 33.43286 -112.01202 1133 ft 1 kts 270°
2026-04-30 19:07 33.43286 -112.01195 1133 ft 0 kts 270°
2026-04-30 19:08 33.43287 -112.01224 1133 ft 6 kts 270°
2026-04-30 19:09 33.43288 -112.01411 1131 ft 16 kts 270°
2026-04-30 19:09 33.43288 -112.01550 1130 ft 16 kts 270°
2026-04-30 19:09 33.43288 -112.01691 1128 ft 16 kts 270°
2026-04-30 19:10 33.43288 -112.01954 1126 ft 15 kts 270°
2026-04-30 19:10 33.43288 -112.02201 1125 ft 13 kts 270°
2026-04-30 19:11 33.43289 -112.02316 1125 ft 14 kts 270°
2026-04-30 19:11 33.43289 -112.02600 1124 ft 13 kts 270°
2026-04-30 19:11 33.43253 -112.02685 1122 ft 11 kts 205°
2026-04-30 19:12 33.43193 -112.02696 1122 ft 7 kts 181°
2026-04-30 19:12 33.43144 -112.02696 1122 ft 7 kts 180°
2026-04-30 19:12 33.43107 -112.02662 1123 ft 7 kts 103°
2026-04-30 19:13 33.43105 -112.02071 1125 ft 89 kts 90°
2026-04-30 19:13 33.43108 -111.99661 1268 ft 187 kts 91°
2026-04-30 19:13 33.42932 -111.98076 1981 ft 194 kts 109°
2026-04-30 19:14 33.42469 -111.96634 2766 ft 188 kts 112°
2026-04-30 19:14 33.41981 -111.95054 2911 ft 214 kts 110°
2026-04-30 19:14 33.41491 -111.93314 3294 ft 228 kts 109°
2026-04-30 19:14 33.40980 -111.91437 3636 ft 246 kts 108°
2026-04-30 19:15 33.40442 -111.89401 4007 ft 264 kts 108°
2026-04-30 19:15 33.39316 -111.85064 5293 ft 276 kts 108°
2026-04-30 19:15 33.38748 -111.82861 5994 ft 279 kts 107°
2026-04-30 19:16 33.38177 -111.80644 6673 ft 282 kts 107°
2026-04-30 19:16 33.37595 -111.78381 7328 ft 287 kts 108°
2026-04-30 19:16 33.35456 -111.74501 8616 ft 290 kts 150°
2026-04-30 19:17 33.33732 -111.73247 9303 ft 293 kts 147°
2026-04-30 19:17 33.30441 -111.70207 10416 ft 311 kts 141°
2026-04-30 19:17 33.28740 -111.68471 10656 ft 331 kts 140°
2026-04-30 19:18 33.25733 -111.65282 11252 ft 357 kts 139°
2026-04-30 19:18 33.23247 -111.62603 12255 ft 360 kts 139°
2026-04-30 19:18 33.21386 -111.60587 12889 ft 365 kts 139°
2026-04-30 19:19 33.19502 -111.58545 13564 ft 369 kts 139°
2026-04-30 19:19 33.17592 -111.56471 14197 ft 372 kts 139°
2026-04-30 19:19 33.13713 -111.52261 15381 ft 380 kts 139°
2026-04-30 19:20 33.11769 -111.50153 15975 ft 384 kts 140°
2026-04-30 19:20 33.09780 -111.47996 16526 ft 388 kts 140°
2026-04-30 19:20 33.06072 -111.43223 17566 ft 399 kts 126°
2026-04-30 19:21 33.04552 -111.40454 18056 ft 404 kts 126°
2026-04-30 19:21 33.01461 -111.34843 19202 ft 408 kts 127°
2026-04-30 19:22 32.98339 -111.29161 20306 ft 412 kts 128°
2026-04-30 19:22 32.93601 -111.20545 21920 ft 418 kts 129°
2026-04-30 19:23 32.88790 -111.11813 23379 ft 425 kts 129°
2026-04-30 19:24 32.85524 -111.05896 24252 ft 431 kts 130°
2026-04-30 19:24 32.83855 -111.02880 24525 ft 437 kts 130°
2026-04-30 19:24 32.80521 -110.96852 25349 ft 441 kts 131°
2026-04-30 19:25 32.75382 -110.87585 26295 ft 452 kts 131°
2026-04-30 19:26 32.71886 -110.81293 26896 ft 458 kts 131°
2026-04-30 19:26 32.68380 -110.74989 27607 ft 462 kts 133°
2026-04-30 19:26 32.66605 -110.71806 27840 ft 467 kts 132°
2026-04-30 19:27 32.63749 -110.64655 28387 ft 495 kts 115°
2026-04-30 19:27 32.61975 -110.56683 28965 ft 503 kts 112°
2026-04-30 19:28 32.61075 -110.52627 29156 ft 508 kts 112°
2026-04-30 19:28 32.59278 -110.44516 29770 ft 512 kts 112°
2026-04-30 19:29 32.57452 -110.36293 30276 ft 518 kts 112°
2026-04-30 19:29 32.56543 -110.32202 30571 ft 519 kts 113°
2026-04-30 19:30 32.53757 -110.19741 31272 ft 523 kts 114°
2026-04-30 19:30 32.51875 -110.11347 31687 ft 526 kts 114°
2026-04-30 19:31 32.49990 -110.02978 32000 ft 530 kts 114°
2026-04-30 19:31 32.49048 -109.98789 32433 ft 525 kts 114°
2026-04-30 19:31 32.47151 -109.90402 32858 ft 526 kts 115°
2026-04-30 19:32 32.46201 -109.86225 33007 ft 528 kts 115°
2026-04-30 19:32 32.45257 -109.82052 33512 ft 523 kts 115°
2026-04-30 19:32 32.43553 -109.73582 33836 ft 536 kts 107°
2026-04-30 19:33 32.42432 -109.64816 34405 ft 536 kts 107°
2026-04-30 19:33 32.41877 -109.60467 34808 ft 533 kts 107°
2026-04-30 19:33 32.41322 -109.56121 35027 ft 534 kts 107°
2026-04-30 19:34 32.40214 -109.47459 35058 ft 536 kts 107°
2026-04-30 19:35 32.38535 -109.34379 35055 ft 535 kts 107°
2026-04-30 19:35 32.37414 -109.25695 35040 ft 532 kts 108°
2026-04-30 19:36 32.36294 -109.17082 35047 ft 532 kts 108°
2026-04-30 19:36 32.34086 -109.04282 35064 ft 531 kts 111°
2026-04-30 19:37 32.32567 -108.95797 35072 ft 531 kts 111°
2026-04-30 19:37 32.31035 -108.87276 35058 ft 533 kts 111°
2026-04-30 19:38 32.29489 -108.78689 35073 ft 534 kts 110°
2026-04-30 19:38 32.27949 -108.70176 35080 ft 533 kts 110°
2026-04-30 19:39 32.26407 -108.61652 35061 ft 529 kts 111°
2026-04-30 19:39 32.24854 -108.53151 35073 ft 531 kts 111°
2026-04-30 19:40 32.23288 -108.44604 35084 ft 533 kts 110°
2026-04-30 19:40 32.21720 -108.36052 35092 ft 532 kts 111°
2026-04-30 19:41 32.20145 -108.27530 35072 ft 534 kts 111°
2026-04-30 19:41 32.18560 -108.18957 35086 ft 532 kts 110°
2026-04-30 19:42 32.16970 -108.10417 35071 ft 533 kts 110°
2026-04-30 19:42 32.15381 -108.01894 35061 ft 535 kts 110°
2026-04-30 19:43 32.13768 -107.93285 35065 ft 533 kts 110°
2026-04-30 19:44 32.11367 -107.80553 35067 ft 534 kts 110°
2026-04-30 19:44 32.09753 -107.72022 35061 ft 535 kts 109°
2026-04-30 19:45 32.08128 -107.63467 35055 ft 534 kts 111°
2026-04-30 19:45 32.06499 -107.54922 35062 ft 534 kts 110°
2026-04-30 19:46 32.04855 -107.46340 35063 ft 536 kts 110°
2026-04-30 19:46 32.03215 -107.37807 35056 ft 535 kts 110°
2026-04-30 19:47 32.01568 -107.29266 35045 ft 534 kts 110°
2026-04-30 19:47 31.99912 -107.20733 35044 ft 537 kts 110°
2026-04-30 19:48 31.98240 -107.12129 35050 ft 537 kts 110°
2026-04-30 19:48 31.96574 -107.03578 35034 ft 535 kts 110°
2026-04-30 19:49 31.94907 -106.95078 35043 ft 536 kts 109°
2026-04-30 19:49 31.92388 -106.82276 35036 ft 536 kts 110°
2026-04-30 19:50 31.90699 -106.73747 35036 ft 538 kts 109°
2026-04-30 19:50 31.89005 -106.65211 35056 ft 539 kts 110°
2026-04-30 19:51 31.87285 -106.56579 35063 ft 540 kts 110°
2026-04-30 19:51 31.85570 -106.48003 35052 ft 539 kts 109°
2026-04-30 19:52 31.83841 -106.39391 35060 ft 541 kts 109°
2026-04-30 19:52 31.82117 -106.30800 35021 ft 538 kts 109°
2026-04-30 19:53 31.81306 -106.22031 35047 ft 548 kts 97°
2026-04-30 19:53 31.80900 -106.13062 35038 ft 549 kts 97°
2026-04-30 19:54 31.80489 -106.04130 35073 ft 551 kts 97°
2026-04-30 19:54 31.80061 -105.95046 35092 ft 551 kts 98°
2026-04-30 19:55 31.79631 -105.86018 35093 ft 551 kts 97°
2026-04-30 19:55 31.79191 -105.76915 35098 ft 551 kts 96°
2026-04-30 19:56 31.78750 -105.67976 35111 ft 554 kts 97°
2026-04-30 19:56 31.78301 -105.58950 35106 ft 552 kts 97°
2026-04-30 19:57 31.77846 -105.49973 35090 ft 554 kts 97°
2026-04-30 19:57 31.77380 -105.40882 35075 ft 556 kts 97°
2026-04-30 19:58 31.76915 -105.31902 35053 ft 553 kts 97°
2026-04-30 19:58 31.76438 -105.22847 35047 ft 556 kts 98°
2026-04-30 19:59 31.75954 -105.13806 35045 ft 556 kts 98°
2026-04-30 20:00 31.75781 -105.00147 35038 ft 562 kts 86°
2026-04-30 20:00 31.76438 -104.91030 35054 ft 562 kts 87°
2026-04-30 20:01 31.77420 -104.77351 35082 ft 558 kts 88°
2026-04-30 20:01 31.78065 -104.68287 35077 ft 560 kts 88°
2026-04-30 20:02 31.79029 -104.54629 35077 ft 562 kts 85°
2026-04-30 20:03 31.79981 -104.40939 35044 ft 558 kts 86°
2026-04-30 20:03 31.80607 -104.31802 35017 ft 560 kts 87°
2026-04-30 20:04 31.81226 -104.22708 35013 ft 559 kts 86°
2026-04-30 20:05 31.82138 -104.09064 34997 ft 557 kts 86°
2026-04-30 20:05 31.83042 -103.95400 35004 ft 560 kts 86°
2026-04-30 20:06 31.83626 -103.86347 34997 ft 559 kts 86°
2026-04-30 20:06 31.84214 -103.77219 34991 ft 559 kts 85°
2026-04-30 20:07 31.84795 -103.68085 35006 ft 559 kts 87°
2026-04-30 20:08 31.85649 -103.54433 35002 ft 559 kts 85°
2026-04-30 20:08 31.86212 -103.45342 35009 ft 561 kts 86°
2026-04-30 20:09 31.86768 -103.36212 35000 ft 560 kts 86°
2026-04-30 20:09 31.87873 -103.22579 34985 ft 559 kts 77°
2026-04-30 20:10 31.90441 -103.09120 34983 ft 561 kts 76°
2026-04-30 20:11 31.93011 -102.95704 34985 ft 561 kts 76°
2026-04-30 20:11 31.94716 -102.86783 34989 ft 560 kts 76°
2026-04-30 20:12 31.97270 -102.73354 34993 ft 558 kts 76°
2026-04-30 20:13 31.98952 -102.64467 34998 ft 558 kts 76°
2026-04-30 20:13 32.00634 -102.55530 35013 ft 561 kts 76°
2026-04-30 20:14 32.02323 -102.46531 35006 ft 558 kts 76°
2026-04-30 20:14 32.03976 -102.37691 35006 ft 558 kts 76°
2026-04-30 20:15 32.05644 -102.28719 34988 ft 559 kts 77°
2026-04-30 20:15 32.07292 -102.19840 34992 ft 557 kts 77°
2026-04-30 20:16 32.08943 -102.10881 34989 ft 556 kts 76°
2026-04-30 20:16 32.10585 -102.01960 34990 ft 558 kts 77°
2026-04-30 20:17 32.12191 -101.93174 34984 ft 555 kts 77°
2026-04-30 20:17 32.13816 -101.84260 34982 ft 556 kts 76°
2026-04-30 20:18 32.15433 -101.75358 34989 ft 557 kts 76°
2026-04-30 20:18 32.17041 -101.66464 34995 ft 556 kts 76°
2026-04-30 20:19 32.18654 -101.57497 34993 ft 557 kts 76°
2026-04-30 20:19 32.20246 -101.48610 34996 ft 557 kts 76°
2026-04-30 20:20 32.21843 -101.39666 34999 ft 557 kts 76°
2026-04-30 20:20 32.23426 -101.30761 34977 ft 556 kts 77°
2026-04-30 20:21 32.25009 -101.21814 34978 ft 558 kts 77°
2026-04-30 20:21 32.26586 -101.12857 34968 ft 557 kts 77°
2026-04-30 20:22 32.28157 -101.03899 34971 ft 560 kts 76°
2026-04-30 20:22 32.29723 -100.94939 34971 ft 558 kts 77°
2026-04-30 20:23 32.31272 -100.86024 34977 ft 557 kts 77°
2026-04-30 20:23 32.32828 -100.77041 34981 ft 559 kts 77°
2026-04-30 20:24 32.34374 -100.68058 34986 ft 557 kts 77°